User: anonymous   Login
Location: S�tio Afonso Gruber
(26.1760°S, 49.5250°W)
Time: 11:54:09
(UTC+00:00)
Language:

Cosmos 1689 Rocket - Orbit

View from above orbital plane
View from above orbital plane
View from above satellite
View from above satellite

Ground track
Ground track

The orbit data is extracted from the following two-line orbital elements,

1 16111U 85090B   20226.65337980 +.00005817 +00000-0 +60668-4 0  9996
2 16111 097.4843 043.1051 0012389 064.1610 296.0925 15.64876275923976
Epoch (UTC): 13 August 2020 15:40:52
Eccentricity: 0.0012389
inclination: 97.4843°
perigee height: 365 km
apogee height: 382 km
right ascension of ascending node: 43.1051°
argument of perigee: 64.1610°
revolutions per day: 15.64876275
mean anomaly at epoch: 296.0925°
orbit number at epoch: 92397

The dashed part of the orbit path shows where the satellite is in the earth's shadow,  

DLR